Погода в Малеме

Греция     35°31′18″N   23°51′00″E
темп.,
°C
ветер,
м/с
пор.,
м/с
влажн.,
%
обл.,
%
осадки,
мм/ч
давл.,
гПа
погр.,
м
12 мая, ср
ср1200:00+15в12275 0.0 101460
03:00+14юв23313 0.0 101241
06:00+15юв22280 0.0 101237
09:00+21ссв222651 0.0 1012265
12:00+23ссз322899 0.0 1011728
15:00+24з5644100 0.0 1011774
18:00+22з67468 0.0 1011555
21:00+17юз46610 0.0 1011124
13 мая, чт
чт1300:00+16юз46610 0.0 1011144
03:00+16юз47690 0.0 1010204
06:00+15юз57856 0.0 1010250
09:00+19зюз67585 0.0 1011596
12:00+22з78495 0.0 1012855
15:00+22зюз79505 0.0 1012868
18:00+20зюз79530 0.0 1012671
21:00+15юз57775 0.0 1013282
14 мая, пт
пт1400:00+15юз468316 0.0 1014209
03:00+15юз4679100 0.0 1013190
06:00+14юз45730 0.0 1014158
09:00+20зюз46500 0.0 1015459
12:00+23з67420 0.0 1015750
15:00+23з78450 0.0 1015763
18:00+21зюз67500 0.0 1015549
21:00+16юз44680 0.0 1015112
15 мая, сб
сб1500:00+16юз34560 0.0 1015107
03:00+17ююз34445 0.0 101467
06:00+17юз34470 0.0 101499
09:00+23зюз45385 0.0 1014405
12:00+24з68380 0.0 1014874
15:00+24з683899 0.0 1013922
18:00+22зюз574434 0.0 1012540
21:00+18юз4555100 0.0 101181
16 мая, вс
вс1600:00+18юз4756100 0.0 1011142
03:00+17юз5878100 0.0 1010395
06:00+15зюз478211 0.0 1010366
09:00+18з71162100 0.0 1010979
12:00+20з81056100 0.0 10101176
15:00+20з8106076 0.0 10101210
18:00+18зюз71067100 0.0 10101033
21:00+16зюз5108211 0.0 1010650